WetterOnline ( https://www.wetteronline.ch )

Wetter aktuell Darß/Zingst

Aktuelles Wetter: Barth (7m)

6-stündlich | Neueste Meldungen
Ortszeit Temperatur Wetter
Do, 22.08. 2:00 9.1° C wolkenlos
Mi, 21.08. 20:00 16.9° C wolkenlos
Mi, 21.08. 14:00 19.5° C leicht bewölkt
Mi, 21.08. 8:00 14.5° C wolkenlos
Mi, 21.08. 2:00 14.6° C leichter Regen
Di, 20.08. 20:00 18.0° C bedeckt
Di, 20.08. 14:00 20.8° C wolkig
Di, 20.08. 8:00 14.2° C wolkenlos
Ortszeit Temperatur Wetter
Do, 22.08. 6:30 7.2° C Nebel
Do, 22.08. 6:20 7.2° C Nebel
Do, 22.08. 6:10 7.1° C Nebel
Do, 22.08. 6:00 7.9° C wolkig
Do, 22.08. 5:50 7.9° C wolkig
Do, 22.08. 5:40 6.9° C leicht bewölkt
Do, 22.08. 5:30 6.3° C wolkenlos
Do, 22.08. 5:00 6.8° C wolkenlos
Do, 22.08. 4:30 6.7° C wolkenlos
Do, 22.08. 4:00 7.2° C Nebel
Do, 22.08. 3:30 7.8° C wolkenlos
Ortszeit Relative Feuchte Sichtweite
Do, 22.08. 2:00 95% 24 km
Mi, 21.08. 20:00 64% 55 km
Mi, 21.08. 14:00 61% 15 km
Mi, 21.08. 8:00 88% 16 km
Mi, 21.08. 2:00 86% 24 km
Di, 20.08. 20:00 72% 35 km
Di, 20.08. 14:00 53% 29 km
Di, 20.08. 8:00 80% 16 km
Ortszeit Relative Feuchte Sichtweite
Do, 22.08. 6:30 97% 0.2 km
Do, 22.08. 6:20 97% -
Do, 22.08. 6:10 99% -
Do, 22.08. 6:00 100% 1.5 km
Do, 22.08. 5:50 100% -
Do, 22.08. 5:40 97% -
Do, 22.08. 5:30 95% 13 km
Do, 22.08. 5:00 96% 13 km
Do, 22.08. 4:30 96% 15 km
Do, 22.08. 4:00 96% 100 m
Do, 22.08. 3:30 95% 19 km
Ortszeit Niederschlagsmenge Niederschlagsart
Do, 22.08. 2:00 0.0 l/m2 in 6 Std. -
Mi, 21.08. 20:00 0.0 l/m2 in 12 Std. -
Mi, 21.08. 14:00 0.0 l/m2 in 6 Std. -
Mi, 21.08. 8:00 0.1 l/m2 in 12 Std. Regen
Mi, 21.08. 2:00 0.1 l/m2 in 6 Std. Regen
Di, 20.08. 20:00 0.0 l/m2 in 12 Std. -
Di, 20.08. 14:00 0.0 l/m2 in 6 Std. -
Di, 20.08. 8:00 0.0 l/m2 in 12 Std. -
Ortszeit Niederschlagsmenge Niederschlagsart
Do, 22.08. 6:30 0.0 l/m2 in 1 Std. -
Do, 22.08. 6:20 keine Meldung -
Do, 22.08. 6:10 keine Meldung -
Do, 22.08. 6:00 0.0 l/m2 in 1 Std. -
Do, 22.08. 5:50 keine Meldung -
Do, 22.08. 5:40 keine Meldung -
Do, 22.08. 5:30 0.0 l/m2 in 1 Std. -
Do, 22.08. 5:00 0.0 l/m2 in 1 Std. -
Do, 22.08. 4:30 0.0 l/m2 in 1 Std. -
Do, 22.08. 4:00 0.0 l/m2 in 1 Std. -
Do, 22.08. 3:30 0.0 l/m2 in 1 Std. -
Ortszeit Stärke Spitze Richtung
km/h Bft. km/h Grad Sektor
Do, 22.08. 2:00 4 1 11 120° SO
Mi, 21.08. 20:00 7 2 40 260° W
Mi, 21.08. 14:00 24 4 37 280° W
Mi, 21.08. 8:00 7 2 15 230° SW
Mi, 21.08. 2:00 11 2 22 160° S
Di, 20.08. 20:00 6 1 28 290° W
Di, 20.08. 14:00 15 3 41 260° W
Di, 20.08. 8:00 9 2 15 190° S
Ortszeit Stärke Spitze Richtung
km/h Bft. km/h Grad Sektor
Do, 22.08. 6:30 4 1 7 200° S
Do, 22.08. 6:20 4 1 - 200° S
Do, 22.08. 6:10 6 1 - 210° SW
Do, 22.08. 6:00 2 1 7 180° S
Do, 22.08. 5:50 2 1 - 180° S
Do, 22.08. 5:40 4 1 - 180° S
Do, 22.08. 5:30 6 1 7 160° S
Do, 22.08. 5:00 6 1 9 160° S
Do, 22.08. 4:30 7 2 11 150° SO
Do, 22.08. 4:00 0 0 7 - -
Do, 22.08. 3:30 0 0 7 - -
Ortszeit Untergrenze Bedeckung Gattung
total tief tief mittel hoch
Do, 22.08. 2:00 - 0/8 0/8 - - -
Mi, 21.08. 20:00 - 0/8 0/8 - - -
Mi, 21.08. 14:00 870 m 2/8 2/8 - - -
Mi, 21.08. 8:00 - 0/8 0/8 - - -
Mi, 21.08. 2:00 1260 m 8/8 8/8 - - -
Di, 20.08. 20:00 6600 m 8/8 8/8 - - -
Di, 20.08. 14:00 1500 m 7/8 5/8 - - -
Di, 20.08. 8:00 - 0/8 0/8 - - -
Ortszeit Bedeckungsgrad in Achtel und Wolkenuntergrenze
Do, 22.08. 6:30 2(8700m) 5(10500m)
Do, 22.08. 6:20 2(8700m) 5(10500m)
Do, 22.08. 6:10 5(9000m)
Do, 22.08. 6:00 7(9000m)
Do, 22.08. 5:50 7(9000m)
Do, 22.08. 5:40 5(9000m)
Do, 22.08. 5:30 2(9000m)
Do, 22.08. 5:00 keine Wolken
Do, 22.08. 4:30 keine Wolken
Do, 22.08. 4:00 keine Wolken
Do, 22.08. 3:30 keine Wolken
Ortszeit Luftdruck NN (hPa) Tendenz (hPa in 3 Std.)
Do, 22.08. 2:00 1029 - 0,1
Mi, 21.08. 20:00 1028 + 0,4
Mi, 21.08. 14:00 1027 + 0,3
Mi, 21.08. 8:00 1026 + 1,4
Mi, 21.08. 2:00 1024 + 0,9
Di, 20.08. 20:00 1022 + 0,8
Di, 20.08. 14:00 1021 + 0,1
Di, 20.08. 8:00 1020 + 0,9
Ortszeit Luftdruck NN (hPa) Tendenz (hPa in 3 Std.)
Do, 22.08. 6:30 1029 0,0
Do, 22.08. 6:20 1029 keine Meldung
Do, 22.08. 6:10 1029 keine Meldung
Do, 22.08. 6:00 1029 - 0,2
Do, 22.08. 5:50 1029 keine Meldung
Do, 22.08. 5:40 1029 keine Meldung
Do, 22.08. 5:30 1029 0,0
Do, 22.08. 5:00 1029 + 0,2
Do, 22.08. 4:30 1029 - 0,1
Do, 22.08. 4:00 1029 - 0,1
Do, 22.08. 3:30 1029 - 0,1
Ortszeit Schneehöhe (cm)
Do, 22.08. 2:00 -
Mi, 21.08. 20:00 -
Mi, 21.08. 14:00 -
Mi, 21.08. 8:00 -
Mi, 21.08. 2:00 -
Di, 20.08. 20:00 -
Di, 20.08. 14:00 -
Di, 20.08. 8:00 -
Ortszeit Schneehöhe (cm)
Do, 22.08. 6:30 -
Do, 22.08. 6:20 -
Do, 22.08. 6:10 -
Do, 22.08. 6:00 -
Do, 22.08. 5:50 -
Do, 22.08. 5:40 -
Do, 22.08. 5:30 -
Do, 22.08. 5:00 -
Do, 22.08. 4:30 -
Do, 22.08. 4:00 -
Do, 22.08. 3:30 -
Link zu dieser Seite / Seite empfehlen

Das Wetter in ...